Showing default

GONETS M 15 (M25), 44906

Orbit data source: Space-Track

GONETS M 15 (M25), 44906 is a payload satellite owned by Gonets (CIS) in LEO that was launched on Thu, 26 Dec 2019 UTC via an ROKOT launch vehicle from the Plesetsk Missile And Space Complex (PKMTR). Payload-class satellites include a variety of spacecraft equipped with specific instruments for various scientific and technological missions. These include communications satellites like Starlink; space stations such as the ISS; scientific satellites like the Hubble; Earth observation satellites from companies like Planet Labs, Umbra, and HawkEye 360; GPS; miniature CubeSats for education and research; and military/defense satellites.

Loading next visibility...
Identifier
44906, 2019-096B
Orbit
LEO
Last TLE update
8 hours ago
Origin
Manufacturer
Resehetnev ISS
Mission
Operational Commercial Communications
Bus & Motor
STRELA-3M, Unknown motor
Mass
225 kg wet, 225 kg dry
Launch date (UTC)
2019-12-26 (5 years ago)
Launch vehicle
ROKOT
Launch site
Plesetsk Missile And Space Complex (PKMTR)
Object type
Payload
Rocket body
Debris
Shape & HBR
Cyl + 1 Ant, 7 m
Radar Cross Section
1.798 m², Large (>1 m²)

Expand to show TLE details & history

TLE from 8 hours ago
0 GONETS M 15 (M25)
1 44906U 19096B   25128.89739011  .00000010  00000-0  34268-5 0  9993
2 44906  82.5250 335.6644 0015413 340.7957  19.2540 12.42895379243423
Epoch: 2025-05-08T21:32Z
Definitive object data (Epoch: 2025-05-08T21:32:14.505Z)
Latitude
-0.00002°
Longitude
145.64267°
Altitude
1,485.598 km
Speed
7.126 km/s
True Right ascension
22h 22m 39s
True Declination
0° 00' 00"
Sunlit
Object was in daylight at TLE epoch
Visualization TLE readout
Latitude
73.09044°
Longitude
170.86803°
Altitude
1,507.877 km
Speed
7.117 km/s
Apparent Right ascension
01h 15m 20s
Apparent Declination
26° 08' 15"
Sunlit
Object is in daylight
Visualization observer readout
Local Sidereal Time
13:48:35
Azimuth
8.138° NNE
Elevation
-23.493°
Doppler factor
1
Orbital elements
Apogee altitude
1,503.833 km
Perigee altitude
1,479.574 km
Semi-major axis
7,869.84 km
Eccentricity
0.0015413
Inclination
82.525°
RAAN
335.6644°
Arg. of periapsis
340.7957°
True anomaly
19.31235°
Mean anomaly
19.254°
Eccentric anomaly
19.28316°
Mean motion
3.10881 °/min
BSTAR
0.0000034268
Orbital period
115.8 mins
Loading maneuver chart data...
Loading SW <> Apogee altitude chart data...
Loading historical data...
Loading historical data...
Loading historical data...
Loading historical data...
Loading historical data...
Loading historical data...
Loading historical data...
Other satellites on launch #96 in the year 2019 (2019-12-26 UTC)

GONETS M 15 (M25) Visibility forecast

Observer location: undefined°, undefined°

Span
Click to sort rows by Start time (UTC) header in descending order
Start Az.
Max El. time (UTC)
Max El. Az.
Max El.
End time (UTC)
End Az.
13 mins2025-05-09 13:05:53.277Z135.695° SSE2025-05-09 13:12:53.277Z78.703° E25.508°2025-05-09 13:18:53.277Z31.204° NE
15 mins2025-05-09 15:01:53.277Z206.371° SW2025-05-09 15:08:53.277Z286.602° WNW40.741°2025-05-09 15:16:53.277Z0.206° NNE
5 mins2025-05-09 23:18:53.277Z42.114° NE2025-05-09 23:20:53.277Z56.27° ENE12.491°2025-05-09 23:23:53.277Z77.4° E
15 mins2025-05-10 01:12:53.277Z359.783° N2025-05-10 01:19:53.277Z84.034° E42.873°2025-05-10 01:27:53.277Z161.914° S
11 mins2025-05-10 03:10:53.277Z319.614° NNW2025-05-10 03:15:53.277Z277.757° WNW22.797°2025-05-10 03:21:53.277Z231.52° WSW
|